• In Deutschland
  • Länderverzeichnis
  • Für 7 Tage
  • Wassertemperatur
  • Satellitenkarten
  • Wetterkarte
  • Widgets
  • user-avatar
    Anmelden

    Stündliche Wetter Yubileynyy

    Heute, 23 April, Montag

    Zeit Temperatur Niederschläge Wind Luftdruck Luftfeuchtigkeit
    00:00 +8°C° 0 mm 2 m/S 720 mmHg 43%
    01:00 +8°C° 0 mm 3 m/S 720 mmHg 43%
    02:00 +7°C° 0 mm 3 m/S 720 mmHg 45%
    03:00 +7°C° 0 mm 3 m/S 720 mmHg 48%
    04:00 +6°C° 0 mm 2 m/S 720 mmHg 50%
    05:00 +8°C° 0 mm 3 m/S 720 mmHg 47%
    06:00 +9°C° 0 mm 3 m/S 720 mmHg 44%
    07:00 +11°C° 0 mm 3 m/S 720 mmHg 41%
    08:00 +13°C° 0 mm 3 m/S 720 mmHg 36%
    09:00 +16°C° 0 mm 3 m/S 720 mmHg 32%
    10:00 +18°C° 0 mm 3 m/S 720 mmHg 27%
    11:00 +19°C° 0 mm 3 m/S 720 mmHg 25%
    12:00 +20°C° 0 mm 3 m/S 720 mmHg 22%
    13:00 +22°C° 0 mm 3 m/S 719 mmHg 19%
    14:00 +22°C° 0 mm 3 m/S 719 mmHg 19%
    15:00 +22°C° 0 mm 3 m/S 719 mmHg 19%
    16:00 +22°C° 0 mm 3 m/S 719 mmHg 18%
    17:00 +19°C° 0 mm 2 m/S 719 mmHg 22%
    18:00 +18°C° 0 mm 1 m/S 718 mmHg 26%
    19:00 +14°C° 0 mm 1 m/S 718 mmHg 30%
    20:00 +13°C° 0 mm 1 m/S 718 mmHg 31%
    21:00 +13°C° 0 mm 1 m/S 718 mmHg 32%
    22:00 +12°C° 0 mm 1 m/S 718 mmHg 33%
    23:00 +11°C° 0 mm 1 m/S 718 mmHg 34%

    Morgen, 24 April, Dienstag

    Zeit Temperatur Niederschläge Wind Luftdruck Luftfeuchtigkeit
    00:00 +11°C° 0 mm 1 m/S 718 mmHg 35%
    01:00 +11°C° 0 mm 1 m/S 718 mmHg 36%
    02:00 +10°C° 0 mm 1 m/S 718 mmHg 38%
    03:00 +10°C° 0 mm 1 m/S 718 mmHg 41%
    04:00 +9°C° 0 mm 1 m/S 717 mmHg 43%
    05:00 +11°C° 0 mm 1 m/S 717 mmHg 41%
    06:00 +12°C° 0 mm 1 m/S 717 mmHg 40%
    07:00 +14°C° 0 mm 1 m/S 716 mmHg 38%
    08:00 +16°C° 0 mm 2 m/S 716 mmHg 34%
    09:00 +19°C° 0 mm 2 m/S 716 mmHg 29%
    10:00 +21°C° 0 mm 2 m/S 715 mmHg 25%
    11:00 +23°C° 0 mm 2 m/S 714 mmHg 22%
    12:00 +25°C° 0 mm 3 m/S 714 mmHg 20%
    13:00 +26°C° 0 mm 3 m/S 713 mmHg 17%
    14:00 +26°C° 0 mm 3 m/S 713 mmHg 17%
    15:00 +26°C° 0 mm 3 m/S 712 mmHg 17%
    16:00 +26°C° 0 mm 3 m/S 711 mmHg 16%
    17:00 +24°C° 0 mm 3 m/S 711 mmHg 20%
    18:00 +20°C° 0 mm 2 m/S 711 mmHg 23%
    19:00 +17°C° 0 mm 2 m/S 711 mmHg 27%
    20:00 +16°C° 0 mm 2 m/S 711 mmHg 30%
    21:00 +15°C° 0 mm 2 m/S 712 mmHg 33%
    22:00 +13°C° 0 mm 2 m/S 712 mmHg 36%
    23:00 +13°C° 0 mm 2 m/S 713 mmHg 45%

    übermorgen, 25 April, Mittwoch

    Zeit Temperatur Niederschläge Wind Luftdruck Luftfeuchtigkeit
    00:00 +12°C° 0 mm 2 m/S 713 mmHg 53%
    01:00 +10°C° 0 mm 2 m/S 714 mmHg 62%
    02:00 +10°C° 0,1 mm 2 m/S 714 mmHg 69%
    03:00 +10°C° 0,1 mm 2 m/S 715 mmHg 76%
    04:00 +10°C° 0,1 mm 3 m/S 715 mmHg 83%
    05:00 +10°C° 0,1 mm 4 m/S 716 mmHg 80%
    06:00 +10°C° 0,1 mm 4 m/S 716 mmHg 76%
    07:00 +9°C° 0,1 mm 5 m/S 717 mmHg 73%
    08:00 +9°C° 0,1 mm 5 m/S 717 mmHg 70%
    09:00 +10°C° 0,1 mm 5 m/S 717 mmHg 66%
    10:00 +10°C° 0,1 mm 5 m/S 718 mmHg 63%
    11:00 +12°C° 0 mm 4 m/S 717 mmHg 59%
    12:00 +12°C° 0 mm 4 m/S 717 mmHg 55%
    13:00 +13°C° 0 mm 3 m/S 717 mmHg 50%
    14:00 +14°C° 0 mm 3 m/S 717 mmHg 48%
    15:00 +14°C° 0 mm 3 m/S 717 mmHg 46%
    16:00 +14°C° 0 mm 3 m/S 716 mmHg 43%
    17:00 +14°C° 0 mm 2 m/S 716 mmHg 48%
    18:00 +12°C° 0 mm 1 m/S 716 mmHg 53%
    19:00 +10°C° 0 mm 1 m/S 716 mmHg 58%
    20:00 +10°C° 0 mm 1 m/S 716 mmHg 60%
    21:00 +9°C° 0 mm 1 m/S 716 mmHg 62%
    22:00 +8°C° 0 mm 1 m/S 717 mmHg 64%
    23:00 +8°C° 0 mm 1 m/S 717 mmHg 64%

    26 April, Donnerstag

    Zeit Temperatur Niederschläge Wind Luftdruck Luftfeuchtigkeit
    00:00 +8°C° 0 mm 1 m/S 716 mmHg 63%
    01:00 +8°C° 0 mm 1 m/S 716 mmHg 62%
    02:00 +8°C° 0 mm 1 m/S 716 mmHg 63%
    03:00 +8°C° 0 mm 1 m/S 716 mmHg 63%
    04:00 +7°C° 0 mm 1 m/S 716 mmHg 64%
    05:00 +9°C° 0 mm 1 m/S 716 mmHg 60%
    06:00 +10°C° 0 mm 1 m/S 717 mmHg 56%
    07:00 +12°C° 0 mm 1 m/S 717 mmHg 51%
    08:00 +14°C° 0 mm 1 m/S 717 mmHg 46%
    09:00 +17°C° 0 mm 2 m/S 717 mmHg 40%
    10:00 +19°C° 0 mm 2 m/S 717 mmHg 34%
    11:00 +20°C° 0 mm 2 m/S 717 mmHg 34%
    12:00 +21°C° 0 mm 3 m/S 716 mmHg 35%
    13:00 +22°C° 0 mm 3 m/S 716 mmHg 35%
    14:00 +22°C° 0 mm 3 m/S 716 mmHg 37%
    15:00 +21°C° 0 mm 3 m/S 715 mmHg 38%
    16:00 +21°C° 0 mm 3 m/S 715 mmHg 40%
    17:00 +19°C° 0 mm 2 m/S 715 mmHg 46%
    18:00 +19°C° 0 mm 1 m/S 714 mmHg 52%
    19:00 +16°C° 0 mm 1 m/S 714 mmHg 59%
    20:00 +15°C° 0 mm 1 m/S 714 mmHg 62%
    21:00 +14°C° 0 mm 1 m/S 714 mmHg 66%
    22:00 +13°C° 0 mm 1 m/S 714 mmHg 69%
    23:00 +13°C° 0,1 mm 1 m/S 714 mmHg 73%

    27 April, Freitag

    Zeit Temperatur Niederschläge Wind Luftdruck Luftfeuchtigkeit
    00:00 +12°C° 0,1 mm 2 m/S 714 mmHg 76%
    01:00 +10°C° 0,1 mm 2 m/S 714 mmHg 79%
    02:00 +10°C° 0,1 mm 2 m/S 714 mmHg 83%
    03:00 +9°C° 0,1 mm 2 m/S 715 mmHg 86%
    04:00 +9°C° 0,1 mm 2 m/S 715 mmHg 89%
    05:00 +9°C° 0 mm 2 m/S 716 mmHg 85%
    06:00 +10°C° 0 mm 3 m/S 716 mmHg 80%
    07:00 +10°C° 0 mm 3 m/S 717 mmHg 76%
    08:00 +11°C° 0 mm 3 m/S 717 mmHg 71%
    09:00 +12°C° 0 mm 4 m/S 718 mmHg 67%
    10:00 +13°C° 0 mm 4 m/S 718 mmHg 63%
    11:00 +14°C° 0 mm 4 m/S 718 mmHg 56%
    12:00 +15°C° 0 mm 4 m/S 718 mmHg 49%
    13:00 +17°C° 0 mm 4 m/S 717 mmHg 42%
    14:00 +17°C° 0 mm 4 m/S 717 mmHg 41%
    15:00 +17°C° 0 mm 4 m/S 717 mmHg 41%
    16:00 +17°C° 0 mm 4 m/S 717 mmHg 40%
    17:00 +14°C° 0 mm 3 m/S 717 mmHg 45%
    18:00 +13°C° 0 mm 2 m/S 717 mmHg 51%
    19:00 +12°C° 0 mm 1 m/S 717 mmHg 56%
    20:00 +11°C° 0 mm 1 m/S 717 mmHg 59%
    21:00 +10°C° 0 mm 1 m/S 717 mmHg 62%
    22:00 +9°C° 0 mm 1 m/S 717 mmHg 65%
    23:00 +9°C° 0 mm 1 m/S 717 mmHg 66%

    28 April, Samstag

    Zeit Temperatur Niederschläge Wind Luftdruck Luftfeuchtigkeit
    00:00 +9°C° 0 mm 1 m/S 717 mmHg 66%
    01:00 +9°C° 0 mm 1 m/S 717 mmHg 66%
    02:00 +9°C° 0,2 mm 1 m/S 717 mmHg 68%
    03:00 +8°C° 0,2 mm 1 m/S 717 mmHg 69%
    04:00 +8°C° 0,2 mm 1 m/S 716 mmHg 71%
    05:00 +8°C° 0,4 mm 1 m/S 716 mmHg 70%
    06:00 +8°C° 0,4 mm 1 m/S 716 mmHg 70%
    07:00 +9°C° 0,4 mm 1 m/S 716 mmHg 69%
    08:00 +8°C° 0,2 mm 2 m/S 716 mmHg 65%
    09:00 +8°C° 0,2 mm 2 m/S 716 mmHg 61%
    10:00 +9°C° 0,2 mm 3 m/S 716 mmHg 58%
    11:00 +8°C° 0,4 mm 3 m/S 715 mmHg 59%
    12:00 +7°C° 0,4 mm 4 m/S 715 mmHg 60%
    13:00 +7°C° 0,4 mm 4 m/S 715 mmHg 61%
    14:00 +6°C° 0,4 mm 4 m/S 715 mmHg 63%
    15:00 +7°C° 0,4 mm 3 m/S 716 mmHg 65%
    16:00 +5°C° 0,4 mm 3 m/S 716 mmHg 66%
    17:00 +5°C° 0 mm 3 m/S 716 mmHg 71%
    18:00 +5°C° 0 mm 2 m/S 717 mmHg 75%
    19:00 +4°C° 0 mm 2 m/S 717 mmHg 80%
    20:00 +3°C° 0 mm 2 m/S 717 mmHg 84%
    21:00 +3°C° 0 mm 2 m/S 717 mmHg 88%
    22:00 +2°C° 0 mm 2 m/S 718 mmHg 92%
    23:00 +3°C° 0 mm 1 m/S 718 mmHg 92%
    Mehr zeigen